Location: Bad Salzschlirf
(50.3750°N, 9.3000°E)
Time: 03:27:14
(UTC+02:00)

ISS - Pass Details

Date: 13 July 2025
Orbit: 413 x 417 km, 51.6° (Epoch: 12 July)

Event Time Altitude Azimuth Distance (km) Brightness Sun altitude
Rises 00:21:37 0° 278° (W) 2,354 0.4 -16.3°
Reaches altitude 10° 00:23:43 10° 281° (W) 1,491 -0.6 -16.4°
Maximum altitude 00:27:04 72° 6° (N) 441 -3.6 -16.5°
Drops below altitude 10° 00:30:24 10° 92° (E) 1,492 -1.1 -16.7°
Enters shadow 00:30:33 - 92° (E) 1,551 -1.0 -16.7°
